Regional Weather Roundup
Issued by NWS Sioux Falls, SD

Home | Current Version | Previous Version | Graphics & Text | Print | Product List | Glossary On
Versions: 1 2 3 4 5 6 7 8 9 10 11 12 13 14 15 16 17 18 19 20 21 22 23 24 25 26 27 28 29 30 31 32 33 34 35 36 37 38 39 40 41 42 43 44 45 46 47 48 49 50
000
ASUS43 KFSD 261802
RWRFSD

WEATHER ROUNDUP FOR SE SOUTH DAKOTA/SW MINNESOTA/NW IOWA
NATIONAL WEATHER SERVICE SIOUX FALLS SD
1200 PM CST THU FEB 26 2015

NOTE: "FAIR" INDICATES FEW OR NO CLOUDS BELOW 12,000 FEET WITH NO
SIGNIFICANT WEATHER AND OR OBSTRUCTIONS TO VISIBILITY.


SDZ038>040-050-052>070-261900-
SOUTHEAST SOUTH DAKOTA

CITY           SKY/WX    TMP DP  RH WIND       PRES   REMARKS
CHAMBERLAIN    NOT AVBL
HURON          SUNNY      1  -8  66 NW12      30.57S WCI -16
6HR MIN TEMP: -18; 6HR MAX TEMP:   1;

MADISON        FAIR       0  -6  78 NW17      30.48R WCI -21
MITCHELL       SUNNY      5  -5  63 N17       30.57S WCI -14
6HR MIN TEMP:  -8; 6HR MAX TEMP:   5;

SIOUX FALLS    MOSUNNY    2  -7  66 N18       30.51R WCI -19
6HR MIN TEMP: -10; 6HR MAX TEMP:   2;

WINNER         CLOUDY     7  -5  57 N13       30.52S BLWGSNOWWCI  -9
YANKTON        MOSUNNY    7  -2  66 N16       30.56R WCI -11
$$

MNZ071-072-080-081-089-090-097-098-261900-
SOUTHWEST MINNESOTA

CITY           SKY/WX    TMP DP  RH WIND       PRES   REMARKS
FAIRMONT       PTSUNNY    1  -8  66 NW15      30.45R WCI -18
JACKSON        SUNNY      3  -8  60 NW16      30.45R WCI -16
LUVERNE        SUNNY      3  -6  66 N15       30.50R WCI -15
MARSHALL       MOSUNNY    0  -9  65 N16G22    30.52R WCI -21
6HR MIN TEMP:  -9; 6HR MAX TEMP:   0;

MONTEVIDEO     MOSUNNY    1  -8  66 N16       30.54R WCI -18
PIPESTONE      MOSUNNY    0  -8  71 N15G21    30.45S HAZE    WCI -20
REDWOOD FALLS  SUNNY      2  -9  60 NW14G22   30.51R WCI -16
TRACY          MOSUNNY    2  -7  64 N15       30.49S WCI -16
WINDOM         MOSUNNY    0  -8  71 NW17      30.46R WCI -21
WORTHINGTON    CLOUDY    23 -11  21 N17       30.46R WCI   9
$$

IAZ001>003-012>014-020>022-031-032-NEZ013-014-SDZ071-261900-
NORTHWEST IOWA

CITY           SKY/WX    TMP DP  RH WIND       PRES   REMARKS
DENISON        MOSUNNY    1  -8  66 NW15      30.48R WCI -18
ESTHERVILLE    MOSUNNY    1  -7  68 N15       30.46R WCI -18
SIOUX CITY     PTSUNNY    7  -4  60 NW17      30.54R WCI -12
6HR MIN TEMP:  -2; 6HR MAX TEMP:   7;

SPENCER        PTSUNNY    4  -6  63 N12       30.47S WCI -12
6HR MIN TEMP:  -7; 6HR MAX TEMP:   4;

$$

ABBREVIATIONS USED IN REMARKS
   TC - TEMPERATURE IN CELSIUS
  WCI - WIND CHILL INDEX
   HX - HEAT INDEX
  VSB - VISIBILITY




USA.gov is the U.S. government's official web portal to all federal, state and local government web resources and services.